www.pogodaiklimat.ru

Погода и климат >> Архив погоды >> Россия >> Якутия >> Усть-Нера


ПОГОДА в Усть-Нере

  • Прогноз погоды в Усть-Нере
  • Монитор погоды в Усть-Нере

АРХИВ ПОГОДЫ в Усть-Нере

Время (UTC), дата Ветер
(напр.,м/с)
 
Видим.   Явления Облачность Т
(С)
Тd
(С)
f
(%)
Тe
(С)
Тes
(С)
Комфортность P
(гПа)
Po
(гПа)
Тmin
(С)
Tmax
(С)
R
(мм)
R24
(мм)
S
(см)
06 17.01 штиль 0 20 км ясно -54.3 -57.0 72 -54 -54 опасность
обморожения
1047.0 965.8
09 17.01 штиль 0 20 км ясно -54.8 -57.0 76 -55 -55 опасность
обморожения
1046.5 965.2 -54.0
12 17.01 штиль 0 20 км ясно -55.7 -59.4 63 -56 -56 опасность
обморожения
1046.0 964.5
15 17.01 штиль 0 20 км ясно -55.9 -59.4 65 -56 -56 опасность
обморожения
1044.6 963.1
18 17.01 штиль 0 20 км ясно -55.9 -59.4 65 -56 -56 опасность
обморожения
1043.5 962.1
21 17.01 штиль 0 20 км ясно -55.7 -59.4 63 -56 -56 опасность
обморожения
1043.4 962.1 -56.2 22
00 18.01 штиль 0 20 км ясно -57.0 -59.4 74 -57 -57 опасность
обморожения
1043.3 961.5 -57.0
03 18.01 штиль 0 20 км ясно -55.4 -59.4 61 -55 -55 опасность
обморожения
1042.2 961.0
06 18.01 штиль 0 20 км ясно -55.1 -57.0 79 -55 -55 опасность
обморожения
1041.8 960.8
09 18.01 штиль 0 10 км ясно -55.9 -59.4 65 -56 -56 опасность
обморожения
1042.4 961.0 -55.1
12 18.01 штиль 0 20 км ясно -56.3 -59.4 68 -56 -56 опасность
обморожения
1043.1 961.5
15 18.01 штиль 0 10 км ясно -56.2 -59.4 67 -56 -56 опасность
обморожения
1042.7 961.3
18 18.01 штиль 0 10 км ясно -56.0 -59.4 65 -56 -56 опасность
обморожения
1043.0 961.6
21 18.01 штиль 0 20 км ясно -55.9 -59.4 65 -56 -56 опасность
обморожения
1043.3 961.9 -56.3 22
00 19.01 штиль 0 50 км ясно -56.1 -59.4 66 -56 -56 опасность
обморожения
1044.1 962.6
03 19.01 штиль 0 50 км ясно -54.8 -57.0 76 -55 -54 опасность
обморожения
1043.5 962.4
06 19.01 штиль 0 20 км ясно -54.6 -57.0 74 -55 -55 опасность
обморожения
1043.8 962.8
09 19.01 штиль 0 20 км ясно -55.1 -57.0 79 -55 -55 опасность
обморожения
1044.1 963.0 -54.6
12 19.01 штиль 0 20 км ясно -55.5 -59.4 61 -56 -56 опасность
обморожения
1044.6 963.3
15 19.01 штиль 0 20 км ясно -54.7 -57.0 75 -55 -55 опасность
обморожения
1043.7 962.7
18 19.01 ЮЗ 1 20 км ясно -54.4 -57.0 73 -61 -61 опасность
обморожения
1043.3 962.4
21 19.01 штиль 0 20 км ясно -53.0 -55.2 77 -53 -53 опасность
обморожения
1043.0 962.6 -55.5 22
00 20.01 штиль 0 20 км ясно -54.5 -57.0 74 -55 -55 опасность
обморожения
1042.9 962.0
03 20.01 штиль 0 50 км 3/0
[Ci fib]
-53.1 -57.0 62 -53 -53 опасность
обморожения
1040.7 960.5
06 20.01 штиль 0 50 км 6/0
[Ci fib]
-52.6 -55.2 73 -53 -53 опасность
обморожения
1039.1 959.2
09 20.01 З 2 20 км 10/0
[Ci sp]
-51.2 -53.7 74 -62 -62 опасность
обморожения
1038.9 959.5 -51.2
12 20.01 штиль 0 20 км 10/0
[Ci sp]
-50.8 -53.7 71 -51 -51 опасность
обморожения
1037.9 958.6
15 20.01 З 1 20 км 8/0
[Ci fib]
-50.8 -53.7 71 -57 -57 опасность
обморожения
1037.0 957.8
18 20.01 штиль 0 20 км 10/0
[Ci fib]
-49.0 -52.4 67 -49 -49 опасность
обморожения
1036.1 957.6
21 20.01 штиль 0 20 км 10/0
[Ac trans Cs]
-47.4 -50.2 73 -47 -47 опасность
обморожения
1035.0 957.1 -51.2 22
00 21.01 З 1 20 км слаб. снег 10/3 1500 м
[Sc As op]
-45.3 -48.4 71 -51 -51 опасность
обморожения
1034.2 957.0
03 21.01 штиль 0 50 км {снег} 8/3 1500 м
[Sc As op]
-43.4 -46.9 68 -43 -43 опасность
обморожения
1033.1 956.6
06 21.01 СВ 2 20 км {снег} 10/4 1500 м
[Sc Ac As]
-42.1 -45.6 68 -52 -52 опасность
обморожения
1032.2 956.3
09 21.01 З 1 20 км слаб. снег 10/5 1500 м
[Sc Ac trans Ci fib]
-41.9 -45.0 72 -47 -47 опасность
обморожения
1032.7 956.7 -41.9 0.0
12 21.01 З 2 20 км {снег} 10/5 1500 м
[Sc Cs]
-42.1 -45.6 68 -52 -52 опасность
обморожения
1033.5 957.5
15 21.01 ЮЗ 1 20 км 10/4 1500 м
[Sc Cs]
-41.3 -44.4 72 -47 -47 опасность
обморожения
1034.2 958.3
18 21.01 З 2 20 км 10/3 1500 м
[Sc Ci fib]
-41.7 -45.0 70 -51 -51 опасность
обморожения
1036.3 960.3
21 21.01 ЮЗ 2 20 км 10/5 1000 м
[Sc Ci fib]
-41.9 -45.0 72 -51 -51 опасность
обморожения
1038.7 962.3 -43.1 0.0 22
00 22.01 З 2 20 км 10/4 1000 м
[Sc Ci fib]
-41.1 -44.4 70 -50 -50 опасность
обморожения
1039.4 963.3
03 22.01 З 2 20 км 10/5 1000 м
[Sc Ci fib]
-39.7 -42.9 71 -49 -49 опасность
обморожения
1039.9 964.2
06 22.01 ЮЗ 3 20 км 10/5 1000 м
[Sc Ci sp]
-39.1 -42.5 70 -51 -51 опасность
обморожения
1040.4 964.8
09 22.01 ЮЗ 1 20 км 10/5 1000 м
[Sc Ci fib]
-37.2 -40.8 69 -42 -42 опасность
обморожения
1040.1 965.2 -37.2
12 22.01 ЮЗ 1 20 км 10/8 1320 м
[Sc Ci fib]
-36.1 -39.7 69 -41 -41 опасность
обморожения
1040.8 966.1
15 22.01 штиль 0 20 км 10/8 1380 м
[Sc Ci fib]
-34.9 -37.7 75 -35 -35 опасность
обморожения
1040.3 965.9
18 22.01 штиль 0 20 км 10/10 1410 м
[Sc]
-34.8 -37.7 75 -35 -35 опасность
обморожения
1040.9 966.5
21 22.01 штиль 0 20 км 10/10 1380 м
[Sc]
-34.9 -37.7 75 -35 -35 опасность
обморожения
1041.4 967.0 -37.3 22
00 23.01 штиль 0 20 км 9/4 1000 м
[Sc As op]
-36.1 -39.0 74 -36 -36 опасность
обморожения
1041.9 967.1
03 23.01 штиль 0 20 км 8/8 1320 м
[Sc]
-34.1 -37.1 74 -34 -34 опасность
обморожения
1041.0 966.8
06 23.01 штиль 0 20 км 8/8 1350 м
[Sc]
-36.0 -39.0 74 -36 -36 опасность
обморожения
1042.3 967.2
09 23.01 штиль 0 20 км 9/6 1410 м
[Sc Ci fib]
-36.3 -39.0 76 -36 -36 опасность
обморожения
1041.7 966.8 -33.8
12 23.01 штиль 0 10 км слаб. снег 10/4 1000 м
[Sc As op]
-34.8 -37.7 75 -35 -35 опасность
обморожения
1041.2 966.8
15 23.01 штиль 0 10 км слаб. снег 10/4 1000 м
[Sc As op]
-34.5 -37.4 75 -35 -35 опасность
обморожения
1040.6 966.4
18 23.01 штиль 0 10 км слаб. снег 10/3 1000 м
[Sc As op]
-34.5 -37.4 75 -35 -35 опасность
обморожения
1040.3 966.1
21 23.01 штиль 0 10 км слаб. снег 10/4 1000 м
[Sc As op]
-34.2 -37.1 75 -34 -34 опасность
обморожения
1039.7 965.7 -36.3 0.3 22
00 24.01 З 1 20 км слаб. снег 10/4 1000 м
[Sc As op]
-35.1 -38.0 75 -40 -40 опасность
обморожения
1040.1 965.7
03 24.01 штиль 0 20 км слаб. снег 10/3 1000 м
[Sc As op]
-34.1 -37.1 74 -34 -34 опасность
обморожения
1039.2 965.2

 

Местоположение метеостанции Усть-Нера (Якутия, Россия): широта 64.53 долгота 143.10 высота над уровнем моря 519 м.

В архиве по умолчанию представлена погода в Усть-Нере за последнюю неделю. Архивные данные за месяц целиком и за предыдущие месяцы, начиная с января 2011 года, Вы можете получить, выбрав интересующий диапазон дат из раскрывающегося списка и нажав кнопку "Ввод!".


*Определитесь, кто Вы:
робот инопланетянин человек

Внимание! Время в таблицах - всемирное. Для получения местного времени необходимо прибавить поправку, которая равна 10 ч.

Смотрите также архив погоды в соседних городах и на ближайших метеорологических станциях:

Погода в Юртах (Якутия, Россия) (82 км)
Погода в Оймяконе (Якутия, Россия) (142 км)
Погода в Делянкире (Якутия, Россия) (144 км)
Погода в Агаякане (Якутия, Россия) (150 км)
Погода в Усть-Моме (Якутия, Россия) (214 км)
Погода в Восточной (Якутия, Россия) (224 км)
Погода в Сусумане (Магаданская область, Россия) (314 км)
Погода в Иэме (Якутия, Россия) (355 км)
Погода в Томпо (Якутия, Россия) (359 км)
Погода в Теплом Ключе (Якутия, Россия) (367 км)

Пояснения к столбцам:

Ветер - указаны скорость ветра в м/с - средняя за 10 мин, порывы в срок и между сроками (в фигурных скобках) и направление, откуда дует ветер: С - северный, СВ - северо-восточный, В - восточный, ЮВ - юго-восточный, Ю - южный, ЮЗ - юго-западный, З - западный, СЗ - северо-западный.
Видимость - горизонтальная дальность видимости в метрах или километрах. При видимости от 1 до 10 км при отсутствии осадков обычно наблюдается дымка, при ухудшении видимости до 1 км и менее - туман. В сухую погоду видимость может ухудшаться дымом, пылью или мглою.
Явления - указаны атмосферные явления, наблюдавшиеся в срок или в последний час перед сроком; фигурными скобками обозначены явления, наблюдавшиеся между сроками (за 1-3 часа до срока); квадратными скобками обозначены град или гололедные отложения с указанием их диаметра в мм.
Облачность - указаны через наклонную черту общая и нижняя облачность в баллах и высота нижней границы облаков в метрах; квадратными скобками обозначены формы облаков: Ci - перистые, Cs - перисто-слоистые, Cc - перисто-кучевые, Ac - высококучевые, As - высокослоистые, Sc - слоисто-кучевые, Ns - слоисто-дождевые, Cu - кучевые, Cb - кучево-дождевые. Подробнее классификацию облаков см. в Атласе облаков (PDF).
T - Температура воздуха - температура, измеренная на высоте 2 м над землей.
Td - Температура точки росы - температура, при понижении до которой содержащийся в воздухе водяной пар достигнет насыщения.
f - Относительная влажность воздуха - влажноcть воздуха, измеренная на высоте 2 м над землей.
Te - Эффективная температура - температура, которую ощущает одетый по сезону человек в тени. Характеристика душности погоды. При расчете учитывается влияние влажности воздуха и скорости ветра на теплоощущения человека.
Tes - Эффективная температура на солнце - температура, которую ощущает человек, с поправкой на солнечный нагрев. Характеристика знойности погоды. Зависит от высоты солнца над горизонтом, облачности и скорости ветра. Ночью, в пасмурную погоду, а также при ветре 12 м/с и более поправка равна нулю.
P - Атмосферное давление - приведенное к уровню моря атмосферное давление.
Po - Атмосферное давление - измеренное на уровне метеостанции атмосферное давление.
Tmin - Минимальная температура - минимум температуры воздуха на высоте 2 м над землей.
Tmax - Максимальная температура - максимум температуры воздуха на высоте 2 м над землей.
R - Количество осадков - Количество выпавших осадков за период времени, мм. При наведении курсора мыши на число - период времени, за который выпало указанное количество осадков.
R24 - Количество осадков - Количество выпавших осадков за 24 часа, мм.
S - Снежный покров - Высота снежного покрова, см. При наведении курсора мыши на число - состояние снежного покрова и степень покрытия местности в баллах.